This demonstration page uses our WeatherBlox Daily Observations layout. Learn more.

Left ArrowRight Arrow

Hourly Observations for May 23, 2021

Temp ( °F °C ) Dew Point ( °F °C ) Humidity (%) Winds ( mph kmh ) Pressure ( in mb ) Visibility ( mi km ) Precip ( " mm )
12:17 am 00:17 Cloudy 40 4.4 36 2.2 86 86 E 9 15 30.27 1025 10 16 0.00 0.00
12:53 am 00:53 Cloudy 41 5 36 2.2 82 82 E 7 11 30.27 1025 10 16 0.00 0.00
1:53 am 01:53 Cloudy 41 5 36 2.2 82 82 ENE 10 17 30.21 1023 10 16 0.00 0.00
2:53 am 02:53 Cloudy 41 5 37 2.8 86 86 ENE 12 19 30.16 1022 10 16 0.00 0.00
3:53 am 03:53 Cloudy 42 5.6 38 3.3 85 85 E 6 9 30.16 1022 10 16 0.00 0.00
4:26 am 04:26 Cloudy 42 5.6 38 3.3 85 85 E 7 11 30.17 1022 10 16 0.00 0.00
4:53 am 04:53 Cloudy 42 5.6 37 2.8 82 82 ENE 9 15 30.15 1021 10 16 0.00 0.00
5:53 am 05:53 Cloudy 43 6.1 38 3.3 82 82 E 13 20 30.11 1020 10 16 0.00 0.00
6:53 am 06:53 Cloudy with Rain 42 5.6 40 4.4 92 92 ENE 12 19 30.10 1019 3 4 0.06 1.52
7:17 am 07:17 Cloudy with Light Rain 42 5.6 41 5 96 96 ENE 10 17 30.08 1019 4 6 0.06 1.52
7:24 am 07:24 Cloudy with Light Rain 43 6.1 41 5 93 93 ENE 12 19 30.07 1018 8 13 0.06 1.52
7:53 am 07:53 Cloudy 43 6.1 42 5.6 97 97 ENE 12 19 30.06 1018 9 14 0.06 1.52
8:22 am 08:22 Cloudy 44 6.7 42 5.6 93 93 E 20 31 30.04 1017 10 16 0.00 0.00
8:53 am 08:53 Cloudy 44 6.7 42 5.6 93 93 E 16 26 30.03 1017 10 16 0.00 0.00
9:53 am 09:53 Cloudy 45 7.2 42 5.6 90 90 E 16 26 30.01 1016 10 16 0.00 0.00
10:53 am 10:53 Cloudy 45 7.2 42 5.6 90 90 E 21 33 29.97 1015 9 14 0.00 0.00
11:53 am 11:53 Cloudy 45 7.2 42 5.6 90 90 E 18 30 29.96 1015 10 16 0.00 0.00
12:23 pm 12:23 Cloudy with Heavy Rain 45 7.2 43 6.1 93 93 E 18 30 29.93 1013 3 5 0.04 1.02
12:34 pm 12:34 Cloudy with Rain 45 7.2 43 6.1 93 93 E 23 37 29.91 1013 3 5 0.07 1.78
12:53 pm 12:53 Cloudy with Light Rain 46 7.8 44 6.7 93 93 ENE 14 22 29.91 1013 6 10 0.10 2.54
1:08 pm 13:08 Cloudy with Light Rain 46 7.8 44 6.7 93 93 E 13 20 29.90 1013 8 13 0.01 0.25
1:53 pm 13:53 Cloudy with Light Rain 47 8.3 45 7.2 93 93 ESE 14 22 29.92 1013 10 16 0.02 0.51
2:08 pm 14:08 Cloudy with Light Rain 47 8.3 45 7.2 93 93 ESE 14 22 29.90 1013 10 16 0.01 0.25
2:33 pm 14:33 Cloudy with Light Rain 48 8.9 45 7.2 89 89 E 16 26 29.87 1011 8 13 0.02 0.51
2:53 pm 14:53 Cloudy with Light Rain 48 8.9 47 8.3 96 96 ENE 17 28 29.86 1011 10 16 0.03 0.76
3:36 pm 15:36 Cloudy 48 8.9 45 7.2 89 89 E 18 30 29.78 1008 10 16 0.00 0.00
3:53 pm 15:53 Cloudy 49 9.4 46 7.8 90 90 E 17 28 29.82 1010 10 16 0.00 0.00
4:35 pm 16:35 Cloudy 52 11.1 47 8.3 83 83 ESE 15 24 29.79 1009 10 16 0.00 0.00
4:46 pm 16:46 Mostly Cloudy 52 11.1 46 7.8 80 80 E 14 22 29.77 1008 10 16 0.00 0.00
4:53 pm 16:53 Partly Cloudy 53 11.7 48 8.9 83 83 ESE 17 28 29.81 1009 10 16 0.00 0.00
5:29 pm 17:29 Cloudy 52 11.1 46 7.8 80 80 ESE 12 19 29.77 1008 10 16 0.00 0.00
5:53 pm 17:53 Cloudy 52 11.1 46 7.8 80 80 ESE 8 13 29.80 1009 10 16 0.00 0.00
6:53 pm 18:53 Cloudy 52 11.1 46 7.8 80 80 Calm 29.80 1009 10 16 0.00 0.00
7:25 pm 19:25 Cloudy 52 11.1 46 7.8 80 80 NNW 3 6 29.76 1008 10 16 0.00 0.00
7:53 pm 19:53 Cloudy 51 10.6 47 8.3 86 86 N 3 6 29.79 1009 10 16 0.00 0.00
8:53 pm 20:53 Cloudy with Rain 49 9.4 47 8.3 93 93 SSW 18 30 29.78 1009 5 8 0.01 0.25
9:08 pm 21:08 Cloudy with Light Rain 47 8.3 45 7.2 93 93 SSW 16 26 29.77 1008 9 14 0.02 0.51
9:26 pm 21:26 Cloudy with Light Rain 47 8.3 45 7.2 93 93 SSW 18 30 29.76 1008 5 8 0.02 0.51
9:53 pm 21:53 Cloudy 47 8.3 45 7.2 93 93 SSW 13 20 29.78 1008 8 13 0.02 0.51
10:14 pm 22:14 Cloudy 47 8.3 44 6.7 90 90 SSW 16 26 29.77 1008 10 16 0.00 0.00
10:53 pm 22:53 Cloudy with Mist and Fog 46 7.8 44 6.7 93 93 SW 18 30 29.77 1008 6 10 0.00 0.00
11:53 pm 23:53 Cloudy 45 7.2 43 6.1 93 93 SW 13 20 29.75 1007 10 16 0.00 0.00

Powered by AerisWeather